Other Public Products
Issued by NWS Grand Forks, ND

Home | Current Version | Previous Version | Text Only | Print | Product List | Glossary On
Versions: 1 2 3 4 5 6 7 8 9 10 11 12 13 14 15 16 17 18 19 20 21 22 23 24 25 26 27 28 29 30 31 32 33 34 35 36 37 38 39 40 41 42 43 44 45 46 47 48 49 50
000
FPUS83 KFGF 271931
OPUFGF
PRAIRIE TO PINES WEATHER ROUNDUP
NATIONAL WEATHER SERVICE EASTERN NORTH DAKOTA/GRAND FORKS ND
200 PM CDT THU JUL 27 2017

 **SATELLITE DATA USED TO AUGMENT SKY COVER AT AUTOMATED STATIONS**
 *****  WEATHER ACROSS EASTERN NORTH DAKOTA  *****

CITY           SKY/WX    TMP DP  RH WIND       PRES   REMARKS
GRAND FORKS    PTSUNNY   84  57  39 VRB5      30.10F
GRAND FORKS AF FAIR      83  56  40 CALM      30.11F
GRAND CITY NWS NOT AVBL
BUXTON           N/A     86  62  45 CALM        N/A
DEVILS LAKE    FAIR      79  57  46 SE8       30.13F
FARGO          FAIR      83  57  41 NW6       30.11F
WAHPETON ARPT  FAIR      81  55  41 CALM      30.12F
$$

 *****  WEATHER ACROSS CENTRAL AND WESTERN NORTH DAKOTA  *****

CITY           SKY/WX    TMP DP  RH WIND       PRES   REMARKS
JAMESTOWN      FAIR      80  54  40 E5        30.13F
BISMARCK       CLOUDY    75  63  66 N8        30.13F
MINOT          FAIR      78  58  49 SE8       30.10S
MINOT AFB      FAIR      78  58  49 SE10      30.08F
GARRISON         N/A     70  63  78 VRB6      30.10R
WILLISTON      LGT RAIN  66  62  87 S13       30.03R
DICKINSON      FAIR      80  59  48 E25G31    30.07F
HETTINGER      FAIR      88  53  30 S18G24    30.08F
$$

 *****  OTHER OBSERVATIONS NORTHEAST NORTH DAKOTA  *****

CITY           SKY/WX    TMP DP  RH WIND       PRES   REMARKS
WALHALLA       NOT AVBL
LANGDON        FAIR      81  59  47 CALM      30.14S
CAVALIER       FAIR      82  63  51 CALM      30.09F
GRAFTON        FAIR      81  61  50 SW3       30.11F
CANDO          NOT AVBL
FORT TOTTEN      N/A     80  56  43 S3        29.95S
ROLLA            N/A     75  59  57 S9G15     30.14S
RUGBY          NOT AVBL
 ***** THE ABOVE OBSERVATIONS ARE NON NWS ARE NOT QUALITY
        CONTROLLED AND MAY MIS-REPORT RAIN FOR SNOW...
$$

 *****  OTHER OBSERVATIONS SOUTHEAST NORTH DAKOTA *****

CITY           SKY/WX    TMP DP  RH WIND       PRES   REMARKS
COOPERSTOWN    FAIR      81  57  44 SE10      30.14F
VALLEY CITY    FAIR      79  61  53 SE7       30.15F
OAKES          NOT AVBL
GWINNER        CLEAR     81  59  47 CALM      30.13S
SHEYENNE NWR     N/A     83  58  42 S3        29.95
BUFFALO          N/A     81  51  35 SW2         N/A
WYNDMERE       NOT AVBL
 ***** THE ABOVE OBSERVATIONS ARE NON NWS ARE NOT QUALITY
       CONTROLLED AND MAY MIS-REPORT RAIN FOR SNOW...
$$

  *****  WEATHER ACROSS NORTHERN MINNESOTA  *****

CITY           SKY/WX    TMP DP  RH WIND       PRES   REMARKS
FLAG ISLAND    FAIR      82  64  54 CALM      30.09S
WARROAD        FAIR      81  68  65 E7        30.10F
ROSEAU         FAIR      82  64  54 SW5       30.10F
HALLOCK        FAIR      82  63  51 W5        30.09F
THF RVR FALLS  FAIR      80  60  50 W8        30.13F
HALSTAD          N/A     81  59  46 CALM        N/A
FOSSTON        FAIR      81  61  50 W5        30.13F
BAUDETTE       FAIR      81  59  47 NW7       30.10F
WASKISH        CLOUDY    77  64  65 W6        30.11S
CROOKSTON      FAIR      81  59  47 CALM      30.11F
$$
  *****  WEATHER ACROSS CENTRAL AND WEST MINNESOTA  *****

CITY           SKY/WX    TMP DP  RH WIND       PRES   REMARKS
BEMIDJI        FAIR      80  56  42 CALM      30.12S
PARK RAPIDS    FAIR      81  57  43 VRB6      30.12S
WADENA         FAIR      79  57  47 CALM      30.12S
DETROIT LAKES  FAIR      77  59  53 NW8       30.14F
MOORHEAD       FAIR      81  57  44 NW5       30.12F
FERGUS FALLS   FAIR      81  59  47 NE3       30.11F
ELBOW LAKE     FAIR      78  58  50 CALM      30.13S HAZE
MORRIS MN      FAIR      82  57  42 NW3       30.11S
STAPLES        PTSUNNY   79  55  44 NW3       30.12R
WHEATON        FAIR      81  57  44 N6        30.13S
$$
  *****  WEATHER ELSEWHERE ACROSS MINNESOTA  *****

CITY           SKY/WX    TMP DP  RH WIND       PRES   REMARKS
DULUTH         FAIR      75  62  64 SE9       30.11S
INTRNTL FALLS  FAIR      81  57  43 N5        30.09F
ELY            FAIR      79  52  38 W6        30.09F
CLOQUET        FAIR      79  54  41 SE5       30.10S
BRAINERD       FAIR      81  57  43 NW5       30.11S
HIBBING        FAIR      79  56  45 NW9       30.11S
ALEXANDRIA     FAIR      79  57  46 NW6       30.14S
SAINT CLOUD    FAIR      79  60  52 N6        30.09F
MINNEAPOLIS    FAIR      84  59  42 NE9       30.07S
$$

  *****  WEATHER ACROSS SOUTH DAKOTA  *****

CITY           SKY/WX    TMP DP  RH WIND       PRES   REMARKS
SIOUX FALLS    FAIR      82  64  54 VRB3      30.10F
BROOKINGS      FAIR      78  60  53 NE7       30.13F
WATERTOWN      PTSUNNY   79  60  52 W5        30.13S
HURON          FAIR      81  60  48 VRB3      30.11F
SISSETON         N/A     82  60  47 E8        30.11F
ABERDEEN       FAIR      81  59  47 E7        30.12F
MITCHELL       FAIR      83  62  49 VRB5      30.11F
PIERRE         FAIR      85  53  33 MISG      30.09F
MOBRIDGE       FAIR      84  62  47 SE9       30.08F
RAPID CITY     LGT RAIN  67  57  70 S18G24    30.16F
$$

  *****  SOME WEATHER IN NEARBY STATES *****

CITY           SKY/WX    TMP DP  RH WIND       PRES   REMARKS
GLASGOW MT     FAIR      85  53  33 SE17      29.98F
GREAT FALLS MT FAIR      88  40  18 N8        30.04F
CHEYENNE WY    FAIR      80  57  45 S14       30.26F
SCOTTSBLUFF NE LGT RAIN  83  64  52 SE18      30.13F
OMAHA NE       FAIR      85  63  47 NE10      30.04F
DES MOINES IA  PTSUNNY   85  66  53 NE12G17   29.99F
DAVENPORT IA   PTSUNNY   82  70  66 N10       29.98S
CHICAGO IL     PTSUNNY   80  68  66 NE13      29.94F
EAU CLAIRE WI  FAIR      83  59  44 N8        30.05S
LA CROSSE WI   FAIR      87  62  43 N10       30.02S
$$

  *****  SOME NATIONAL WEATHER *****

CITY           SKY/WX    TMP DP  RH WIND       PRES   REMARKS
LA GUARDIA NY  CLOUDY    74  69  85 S13       29.93F
RALEIGH NC     PTSUNNY   91  70  49 W7        29.98F HX  96
ATLANTA GA     FAIR      89  70  53 VRB5      30.02F HX  94
NEW ORLEANS LA FAIR      93  68  43 VRB3      30.04F HX  97
OKLAHOMA CITY  PTSUNNY   95  65  37 CALM      29.96F HX  97
ALBUQUERQUE NM PTSUNNY   77  57  50 VRB7      30.23F
SALT LAKE CITY FAIR      85  59  41 VRB7      30.15F
LOS ANGELES CA FAIR      75  65  70 W12       29.95F
BOISE ID       FAIR      88  50  27 MISG      30.07F
SEATTLE WA     CLOUDY    62  52  69 SW7       30.18S
$$

*** WEATHER ACROSS MANITOBA...SASKATCHEWAN AND ONTARIO ***
                ***ONTARIO***

CITY           SKY/WX    TMP DP  RH WIND       PRES   REMARKS
GERALDTON      MOSUNNY   73  46  38 N7        30.10F
THUNDER BAY    MOSUNNY   77  57  50 S12       30.07F
SIOUX LOOKOUT  MOSUNNY   79  52  38 N12       30.10S
TORONTO        PTSUNNY   75  68  78 SE6       29.89F
BIG TROUT LK   SUNNY     75  52  43 S6        30.06F
PICKLE LAKE    PTSUNNY   77  46  33 VRB3      30.09F
DRYDEN         PTSUNNY   79  52  38 W5        30.10F
KENORA         MOSUNNY   81  54  39 NE7       30.11S
$$
                *** MANITOBA***

CITY           SKY/WX    TMP DP  RH WIND       PRES   REMARKS
BRANDON        MOSUNNY   82  61  47 SE6       30.10F
DAUPHIN        SUNNY     82  63  51 SE5       30.07F
ISLAND LAKE    NOT AVBL
PILOT MOUND      N/A     79  50  36 S7          N/A
THE PAS        MOSUNNY   84  54  34 SW8G18    30.00F
THOMPSON       PTSUNNY   84  59  42 SW10      29.95F
WINNIPEG       MOSUNNY   81  64  57 NW3       30.09F
LYNN LAKE      SUNNY     82  52  34 SW12G17   29.92F
CHURCHILL      MOSUNNY   64  48  55 NE17      29.96S
GILLAM         MOSUNNY   79  61  53 NW7       29.94F
$$
                ***SASKATCHEWAN***

CITY           SKY/WX    TMP DP  RH WIND       PRES   REMARKS
ESTEVAN        PTSUNNY   81  59  47 SW2       30.06F
KINDERSLEY     MOSUNNY   88  55  33 S15G23    29.94F
LLOYDMINSTER   MOSUNNY   79  61  53 S12       29.90F
PRINCE ALBERT  PTSUNNY   81  64  57 SE9       29.99F
REGINA         PTSUNNY   88  55  33 SE16G22   30.02F
YORKTON        SUNNY     82  54  36 S6        30.07F


USA.gov is the U.S. government's official web portal to all federal, state and local government web resources and services.